Location: Hall+in+Tirol
(47.2830°N, 11.5170°E)
Time: 19:37:03
(UTC+02:00)

Amateur Radio Satellites - All Passes

Search period start: 24 May 2016 19:07
Search period end: 25 May 2016 19:07
Location: Hall+in+Tirol, 47.2830°N, 11.5170°E

Satellite Date Start Highest point End Downlink Frequencies (MHz)
Time Altitude Azimuth
RS-15 24 May 19:07:44 19:19:07 81° 123° (ESE) 19:31:12 29.354- 29.394
NOAA 15 24 May 19:14:29 19:19:12 32° 264° (W) 19:23:58 137.62
STARS 24 May 19:16:26 19:18:23 13° 303° (WNW) 19:20:19 437.465
BRITE-PL 24 May 19:18:01 19:23:19 42° 264° (W) 19:28:45 437.365/2234.400
STRAND 1 24 May 19:19:08 19:22:13 16° 89° (E) 19:25:16 437.568
PCSat 24 May 19:23:36 19:28:55 50° 50° (NE) 19:34:10 145.827
COMPASS 1 24 May 19:26:39 19:28:20 12° 59° (ENE) 19:29:59 437.405
CUBESAT XI-V 24 May 19:31:06 19:35:35 43° 291° (WNW) 19:40:01 437.345
AUBIESAT-1 24 May 19:31:33 19:35:37 53° 67° (ENE) 19:39:25 437.475
DOVE 4 24 May 19:31:56 19:37:12 81° 74° (ENE) 19:42:18 437.250
HO-68 24 May 19:32:26 19:39:10 47° 63° (ENE) 19:45:57 435.675
AAUSAT CUBESAT 2 24 May 19:33:14 19:34:38 12° 58° (ENE) 19:36:03 437.432
M-CUBED/EXP-1 PRIME 24 May 19:34:42 19:38:57 70° 68° (ENE) 19:42:53 437.505
CUTE-I 24 May 19:54:01 19:58:04 22° 268° (W) 20:02:09 437.470
CANX-2 24 May 19:56:00 20:00:01 46° 71° (ENE) 20:04:04 2200.000
GOMX 1 24 May 20:02:30 20:07:25 33° 266° (W) 20:12:18 467.674
BEESAT 2 24 May 20:03:31 20:05:48 14° 30° (NNE) 20:08:03 435.950
SEEDS 24 May 20:06:26 20:10:17 38° 70° (ENE) 20:14:12 437.485
CUBEBUG 2 24 May 20:09:42 20:13:04 22° 65° (ENE) 20:16:23 437.445
Oscar 11 24 May 20:14:59 20:17:16 14° 60° (ENE) 20:19:35 145.826/435.025
NOAA 18 24 May 20:16:58 20:19:04 12° 273° (W) 20:21:11 137.9125
ZACube-1 24 May 20:21:50 20:24:08 14° 60° (ENE) 20:26:25 437.345
O/OREOS (USA 219) 24 May 20:22:03 20:26:34 80° 64° (ENE) 20:31:02 437.305
CUTE 1.7 + AOD 2 24 May 20:23:47 20:27:59 79° 74° (ENE) 20:32:13 437.475
Cosmos 2504 24 May 20:27:34 20:33:38 28° 297° (WNW) 20:40:00 435.465 / 435.565
CINEMA 3 24 May 20:30:18 20:35:07 84° 257° (WSW) 20:39:44 145.822/145.860
BEESAT 3 24 May 20:44:55 20:48:37 36° 44° (NE) 20:52:17 437.485
UWE-3 24 May 20:45:31 20:49:25 34° 69° (ENE) 20:53:15 435.000/436.395/437.385
AIST 1 24 May 20:53:48 20:54:23 10° 81° (E) 20:54:58
STRAND 1 24 May 20:56:48 21:01:58 76° 288° (WNW) 21:07:06 437.568
COMPASS 1 24 May 20:59:08 21:03:17 81° 257° (WSW) 21:07:28 437.405
GONETS M04 24 May 20:59:14 21:03:55 16° 72° (ENE) 21:08:37
FUNcube-1 24 May 21:00:17 21:04:00 31° 68° (ENE) 21:07:42 145.935
AAUSAT CUBESAT 2 24 May 21:05:21 21:09:28 86° 252° (WSW) 21:13:40 437.432
PCSat 24 May 21:07:24 21:12:05 30° 249° (WSW) 21:16:45 145.827
AUBIESAT-1 24 May 21:07:42 21:10:20 16° 262° (W) 21:12:51 437.475
PRISM 24 May 21:11:45 21:15:34 32° 97° (E) 21:19:20 437.425
M-CUBED/EXP-1 PRIME 24 May 21:11:53 21:13:49 13° 263° (W) 21:15:42 437.505
DOVE 4 24 May 21:12:25 21:15:25 15° 272° (W) 21:18:24 437.250
HO-68 24 May 21:20:22 21:27:00 40° 263° (W) 21:33:41 435.675
RS-15 24 May 21:21:51 21:32:52 45° 331° (NNW) 21:44:28 29.354- 29.394
Cosmos 2499 24 May 21:31:33 21:33:29 11° 70° (ENE) 21:35:26 435.465 / 435.565
CANX-2 24 May 21:33:10 21:36:08 19° 269° (W) 21:39:07 2200.000
BEESAT 2 24 May 21:40:22 21:44:22 70° 50° (NE) 21:48:21 435.950
AIST 2 24 May 21:42:41 21:44:42 13° 27° (NNE) 21:46:43 435.215
SEEDS 24 May 21:42:55 21:46:09 22° 268° (W) 21:49:25 437.485
CUBEBUG 2 24 May 21:45:15 21:49:28 43° 261° (W) 21:53:36 437.445
CUSAT 1 24 May 21:46:05 21:51:39 20° 53° (NE) 21:56:53 437.405
Oscar 11 24 May 21:48:35 21:52:52 72° 258° (WSW) 21:57:11 145.826/435.025
ZACube-1 24 May 21:55:42 21:59:57 68° 258° (WSW) 22:04:09 437.345
CUTE 1.7 + AOD 2 24 May 22:03:17 22:04:24 11° 273° (W) 22:05:30 437.475
O/OREOS (USA 219) 24 May 22:03:31 22:05:17 12° 263° (W) 22:07:02 437.305
DELFI C3 24 May 22:05:42 22:09:39 87° 77° (ENE) 22:13:40 145.870
CINEMA 3 24 May 22:12:02 22:12:53 10° 273° (W) 22:13:45 145.822/145.860
UWE-3 24 May 22:22:18 22:25:57 26° 266° (W) 22:29:31 435.000/436.395/437.385
BEESAT 3 24 May 22:22:49 22:26:12 28° 244° (WSW) 22:29:36 437.485
AIST 1 24 May 22:26:49 22:31:14 86° 279° (W) 22:35:41
AISAT 24 May 22:32:27 22:35:00 15° 59° (ENE) 22:37:33 437.250
HUMSAT D 24 May 22:35:28 22:39:33 84° 76° (ENE) 22:43:39 437.325/437.525
FUNcube-1 24 May 22:36:37 22:40:16 27° 265° (W) 22:43:53 145.935
STRAND 1 24 May 22:37:58 22:40:18 13° 306° (NW) 22:42:38 437.568
UNISAT 6 24 May 22:42:00 22:44:58 18° 91° (E) 22:47:56 437.425
PRISM 24 May 22:47:15 22:50:46 26° 295° (WNW) 22:54:16 437.425
DANDE 24 May 22:47:52 22:54:54 29° 61° (ENE) 23:01:49 436.750
GONETS M04 24 May 22:50:22 22:59:06 72° 94° (E) 23:07:49
TIGRISAT 24 May 22:50:37 22:53:51 21° 93° (E) 22:57:05 435.000
ESTCUBE 1 24 May 22:54:15 22:58:11 30° 66° (ENE) 23:02:08 437.505/2401.250
UKube-1 24 May 22:59:35 23:02:31 18° 61° (ENE) 23:05:28 .
ISS 24 May 23:05:48 23:08:21 21° 139° (SE) 23:10:54 145.825
Cosmos 2499 24 May 23:17:40 23:24:44 62° 93° (E) 23:32:21 435.465 / 435.565
BEESAT 2 24 May 23:19:37 23:21:42 14° 249° (WSW) 23:23:47 435.950
AIST 2 24 May 23:20:01 23:24:06 54° 48° (NE) 23:28:10 435.215
ANTELSAT 24 May 23:22:32 23:26:40 45° 99° (E) 23:30:48 437.575/2403.000
CUSAT 1 24 May 23:27:14 23:35:20 74° 76° (ENE) 23:42:23 437.405
VELOX 1 24 May 23:31:02 23:35:19 47° 70° (ENE) 23:39:37 145.980
NANOSAT C BR1 24 May 23:32:57 23:34:09 11° 88° (E) 23:35:20 145.865
CUBEBUG 1 24 May 23:33:32 23:37:50 50° 71° (ENE) 23:42:09 437.445
DX 1 24 May 23:38:01 23:42:15 48° 70° (ENE) 23:46:29 434.975-435.025
50 SAT 24 May 23:38:18 23:41:53 59° 73° (ENE) 23:45:29 437.505
RS-15 24 May 23:38:39 23:49:17 34° 5° (N) 00:00:12 29.354- 29.394
AISAT 25 May 00:06:27 00:10:56 74° 257° (WSW) 00:15:26 437.250
AIST 1 25 May 00:08:41 00:09:35 10° 299° (WNW) 00:10:29
DUCHIFAT 1 25 May 00:11:21 00:14:55 26° 95° (E) 00:18:26 145.980
SPROUT 25 May 00:16:49 00:21:01 56° 72° (ENE) 00:25:15 437.525
UNISAT 6 25 May 00:17:50 00:21:58 49° 289° (WNW) 00:26:07 437.425
TIGRISAT 25 May 00:26:42 00:30:44 42° 290° (WNW) 00:34:47 435.000
DANDE 25 May 00:30:15 00:38:40 82° 262° (W) 00:46:44 436.750
ESTCUBE 1 25 May 00:30:52 00:34:55 32° 264° (W) 00:39:02 437.505/2401.250
UKube-1 25 May 00:33:55 00:38:10 56° 259° (W) 00:42:27 .
ISS 25 May 00:41:15 00:44:31 76° 337° (NNW) 00:47:48 145.825
BUGSAT 1 25 May 00:44:20 00:47:51 28° 95° (E) 00:51:20 437.445
POPSAT HIP 1 25 May 00:44:59 00:49:10 65° 102° (ESE) 00:53:20 437.405
QB50P1 25 May 00:45:44 00:49:56 67° 102° (ESE) 00:54:06 145.935-145.965
QB50P2 25 May 00:46:45 00:50:58 73° 102° (ESE) 00:55:10 145.880/145.840
POLYITAN 1 25 May 00:49:11 00:53:24 74° 102° (ESE) 00:57:35 437.675
GONETS M04 25 May 00:49:15 00:56:45 30° 297° (WNW) 01:04:15
TISAT 1 25 May 00:54:12 00:58:12 42° 69° (ENE) 01:02:12 437.305
PHONESAT 2.4 25 May 00:56:23 00:58:28 16° 164° (SSE) 01:00:32 2401.200-2431.200
AIST 2 25 May 00:59:15 01:02:15 19° 247° (WSW) 01:05:13 435.215
ANTELSAT 25 May 00:59:56 01:03:07 21° 297° (WNW) 01:06:18 437.575/2403.000
NANOSAT C BR1 25 May 01:06:14 01:10:26 78° 287° (WNW) 01:14:36 145.865
VELOX 1 25 May 01:08:44 01:12:02 20° 268° (W) 01:15:21 145.980
CUSAT 1 25 May 01:10:18 01:16:39 27° 278° (W) 01:22:25 437.405
CUBEBUG 1 25 May 01:11:16 01:14:25 19° 269° (W) 01:17:35 437.445
Cosmos 2499 25 May 01:12:15 01:18:29 30° 296° (WNW) 01:25:07 435.465 / 435.565
50 SAT 25 May 01:14:52 01:16:01 11° 271° (W) 01:17:09 437.505
DX 1 25 May 01:15:32 01:18:42 19° 268° (W) 01:21:53 434.975-435.025
JAS-2 25 May 01:24:12 01:31:10 37° 92° (E) 01:37:33 435.910
Oscar 19 25 May 01:24:12 01:26:47 14° 87° (E) 01:29:20 437.125/150
SWISSCUBE 25 May 01:33:07 01:37:06 27° 64° (ENE) 01:41:07 437.505
ITUPSAT 1 25 May 01:37:23 01:41:21 27° 63° (ENE) 01:45:21 437.325
SO-50 25 May 01:40:23 01:44:55 39° 119° (ESE) 01:49:29 436.795
DUCHIFAT 1 25 May 01:46:55 01:50:38 32° 293° (WNW) 01:54:20 145.980
RS-15 25 May 01:53:14 02:05:11 55° 37° (NE) 02:17:15 29.354- 29.394
SPROUT 25 May 01:54:39 01:57:20 16° 270° (W) 02:00:02 437.525
BEESAT 25 May 02:02:36 02:07:06 45° 69° (ENE) 02:11:39 436.000
DANDE 25 May 02:14:37 02:20:22 21° 281° (WNW) 02:26:00 436.750
ISS 25 May 02:18:11 02:21:15 36° 357° (N) 02:24:20 145.825
BUGSAT 1 25 May 02:19:42 02:23:13 28° 293° (WNW) 02:26:41 437.445
KKS-1 25 May 02:20:32 02:21:25 11° 55° (NE) 02:22:19 437.445
POPSAT HIP 1 25 May 02:22:04 02:24:29 15° 300° (WNW) 02:26:52 437.405
QB50P1 25 May 02:22:53 02:25:13 15° 300° (WNW) 02:27:32 145.935-145.965
QB50P2 25 May 02:24:06 02:26:15 14° 301° (WNW) 02:28:22 145.880/145.840
POLYITAN 1 25 May 02:26:35 02:28:40 13° 301° (WNW) 02:30:43 437.675
TISAT 1 25 May 02:30:50 02:34:02 21° 267° (W) 02:37:15 437.305
PHONESAT 2.4 25 May 02:32:05 02:34:39 23° 181° (S) 02:37:14 2401.200-2431.200
Gurwin Techsat 1B 25 May 02:57:04 03:02:04 40° 97° (E) 03:07:02 435.225
Oscar 19 25 May 03:01:35 03:06:48 86° 285° (WNW) 03:11:57 437.125/150
STARS 25 May 03:03:46 03:06:13 15° 59° (ENE) 03:08:40 437.465
YUBILEINY 25 May 03:07:18 03:15:17 37° 67° (ENE) 03:23:15 435.215
JAS-2 25 May 03:08:59 03:16:27 54° 294° (WNW) 03:23:15 435.910
SWISSCUBE 25 May 03:10:16 03:14:45 40° 262° (W) 03:19:14 437.505
ITUPSAT 1 25 May 03:14:32 03:19:01 41° 262° (W) 03:23:33 437.325
SO-50 25 May 03:20:51 03:25:27 39° 318° (NW) 03:30:03 436.795
ITAMSAT 1 25 May 03:35:50 03:40:38 36° 97° (E) 03:45:24 435.822/435.867
BEESAT 25 May 03:41:18 03:45:07 24° 267° (W) 03:48:56 436.000
MOZHAYETS 4 25 May 03:43:54 03:48:12 43° 69° (ENE) 03:52:32
KKS-1 25 May 03:52:43 03:57:11 74° 74° (ENE) 04:01:40 437.445
ISS 25 May 03:54:53 03:58:05 53° 17° (NNE) 04:01:18 145.825
AO-7 25 May 04:04:24 04:11:32 30° 94° (E) 04:18:37 29.400- 29.500
Cosmos 2491 25 May 04:05:23 04:13:06 36° 83° (E) 04:20:49 435.465 / 435.565
RS-15 25 May 04:06:10 04:18:10 63° 244° (WSW) 04:30:09 29.354- 29.394
PHONESAT 2.4 25 May 04:08:54 04:10:50 15° 197° (SSW) 04:12:47 2401.200-2431.200
Cosmos 2504 25 May 04:20:01 04:27:12 32° 66° (ENE) 04:34:41 435.465 / 435.565
Gurwin Techsat 1B 25 May 04:37:13 04:41:55 33° 296° (WNW) 04:46:36 435.225
STARS 25 May 04:37:37 04:42:02 74° 256° (WSW) 04:46:28 437.465
Oscar 19 25 May 04:42:34 04:45:22 15° 305° (NW) 04:48:09 437.125/150
JAS-2 25 May 04:55:55 04:59:42 15° 316° (NW) 05:03:24 435.910
CUBESAT XI-V 25 May 05:00:17 05:04:28 33° 67° (ENE) 05:08:41 437.345
YUBILEINY 25 May 05:04:00 05:12:29 57° 269° (W) 05:20:59 435.215
SO-50 25 May 05:04:51 05:07:17 14° 340° (NNW) 05:09:42 436.795
HORYU 2 25 May 05:08:11 05:11:21 19° 92° (E) 05:14:31 437.375
ITAMSAT 1 25 May 05:15:22 05:20:05 35° 295° (WNW) 05:24:47 435.822/435.867
MOZHAYETS 4 25 May 05:21:58 05:25:34 23° 268° (W) 05:29:11
ISS 25 May 05:31:26 05:34:28 35° 215° (SW) 05:37:29 145.825
KKS-1 25 May 05:32:10 05:34:17 13° 271° (W) 05:36:24 437.445
NOAA 15 25 May 05:48:54 05:50:11 11° 85° (E) 05:51:29 137.62
AO-7 25 May 05:56:38 06:04:57 71° 294° (WNW) 06:13:15 29.400- 29.500
Cosmos 2491 25 May 06:00:50 06:09:31 59° 285° (WNW) 06:18:15 435.465 / 435.565
Cosmos 2504 25 May 06:13:00 06:21:11 68° 266° (W) 06:29:49 435.465 / 435.565
RS-15 25 May 06:21:38 06:28:00 16° 267° (W) 06:34:22 29.354- 29.394
LilacSat-2 25 May 06:24:17 06:25:15 11° 88° (E) 06:26:12 437.200
CUTE-I 25 May 06:27:13 06:30:47 18° 90° (E) 06:34:20 437.470
STRAND 1 25 May 06:37:34 06:42:01 32° 64° (ENE) 06:46:30 437.568
CUBESAT XI-V 25 May 06:37:43 06:41:51 31° 265° (W) 06:46:03 437.345
HORYU 2 25 May 06:43:55 06:48:12 49° 290° (WNW) 06:52:28 437.375
SO-50 25 May 06:49:41 06:49:56 10° 5° (N) 06:50:12 436.795
NOAA 18 25 May 06:51:06 06:56:01 33° 96° (E) 07:00:55 137.9125
YUBILEINY 25 May 07:04:46 07:07:14 11° 292° (WNW) 07:09:41 435.215
AO-85 25 May 07:05:35 07:10:33 37° 117° (ESE) 07:15:27 145.980
Cubesat XI-IV 25 May 07:18:44 07:23:55 47° 99° (E) 07:29:04 437.490
BRITE-PL 25 May 07:19:53 07:25:10 59° 99° (E) 07:30:00 437.365/2234.400
NOAA 15 25 May 07:25:32 07:30:52 76° 103° (ESE) 07:36:10 137.62
DOVE 4 25 May 07:29:28 07:32:15 16° 88° (E) 07:34:55 437.250
AO-7 25 May 07:50:38 07:56:23 21° 316° (NW) 08:02:07 29.400- 29.500
LilacSat-2 25 May 07:56:14 08:00:00 66° 286° (WNW) 08:03:45 437.200
GOMX 1 25 May 08:01:04 08:05:57 68° 101° (E) 08:10:27 467.674
Cosmos 2491 25 May 08:04:01 08:08:39 15° 311° (NW) 08:13:20 435.465 / 435.565
PRISM 25 May 08:04:01 08:07:49 36° 68° (ENE) 08:11:40 437.425
CUTE-I 25 May 08:06:02 08:11:23 72° 288° (WNW) 08:16:43 437.470
CUTE 1.7 + AOD 2 25 May 08:07:43 08:09:05 11° 87° (E) 08:10:26 437.475
Cosmos 2504 25 May 08:08:57 08:13:04 15° 287° (WNW) 08:17:18 435.465 / 435.565
STRAND 1 25 May 08:16:21 08:21:06 39° 262° (W) 08:25:53 437.568
CINEMA 3 25 May 08:23:06 08:25:49 17° 90° (E) 08:28:30 145.822/145.860
SO-50 25 May 08:28:50 08:32:20 20° 30° (NNE) 08:35:47 436.795
AIST 1 25 May 08:30:51 08:34:48 32° 73° (ENE) 08:38:42
NOAA 18 25 May 08:31:40 08:36:46 41° 295° (WNW) 08:41:51 137.9125
COMPASS 1 25 May 08:40:22 08:42:27 13° 89° (E) 08:44:30 437.405
AUBIESAT-1 25 May 08:42:34 08:44:56 18° 99° (E) 08:47:15 437.475
HO-68 25 May 08:43:57 08:50:27 36° 96° (E) 08:56:55 435.675
AO-85 25 May 08:45:49 08:51:02 46° 315° (NW) 08:56:07 145.980
M-CUBED/EXP-1 PRIME 25 May 08:46:10 08:48:55 24° 101° (E) 08:51:36 437.505
AAUSAT CUBESAT 2 25 May 08:46:17 08:48:04 12° 88° (E) 08:49:50 437.432
GONETS M04 25 May 08:56:51 09:05:02 42° 69° (ENE) 09:13:09
BRITE-PL 25 May 08:59:07 09:03:10 22° 300° (WNW) 09:07:00 437.365/2234.400
Cubesat XI-IV 25 May 08:59:15 09:03:46 28° 298° (WNW) 09:08:17 437.490
Cosmos 2499 25 May 09:03:54 09:11:09 31° 65° (ENE) 09:18:40 435.465 / 435.565
DOVE 4 25 May 09:05:58 09:10:26 57° 288° (WNW) 09:14:37 437.250
NOAA 15 25 May 09:06:27 09:10:04 19° 303° (WNW) 09:13:40 137.62
CANX-2 25 May 09:13:19 09:17:34 61° 101° (E) 09:21:49 2200.000
SEEDS 25 May 09:22:23 09:26:31 49° 99° (E) 09:30:38 437.485
CUBEBUG 2 25 May 09:32:52 09:36:30 28° 95° (E) 09:40:07 437.445
Oscar 11 25 May 09:33:34 09:36:25 17° 90° (E) 09:39:16 145.826/435.025
PRISM 25 May 09:39:54 09:43:14 23° 266° (W) 09:46:36 437.425
GOMX 1 25 May 09:40:18 09:43:26 17° 302° (WNW) 09:46:26 467.674
CUTE 1.7 + AOD 2 25 May 09:41:11 09:45:28 79° 287° (WNW) 09:49:45 437.475
ZACube-1 25 May 09:41:36 09:44:25 17° 91° (E) 09:47:15 437.345
UNISAT 6 25 May 09:43:46 09:47:18 24° 65° (ENE) 09:50:48 437.425
CUTE-I 25 May 09:48:09 09:50:31 13° 307° (NW) 09:52:53 437.470
TIGRISAT 25 May 09:52:12 09:55:54 27° 66° (ENE) 09:59:33 435.000
CINEMA 3 25 May 09:59:13 10:03:19 49° 289° (WNW) 10:07:19 145.822/145.860
UWE-3 25 May 10:07:44 10:11:45 46° 99° (E) 10:15:48 435.000/436.395/437.385
AIST 1 25 May 10:08:39 10:12:17 26° 271° (W) 10:15:54
SO-50 25 May 10:08:48 10:13:35 81° 53° (NE) 10:18:11 436.795
PCSat 25 May 10:09:36 10:13:42 22° 107° (ESE) 10:17:48 145.827
QB50P2 25 May 10:10:27 10:11:12 10° 57° (ENE) 10:11:58 145.880/145.840
POLYITAN 1 25 May 10:12:44 10:13:38 11° 57° (ENE) 10:14:32 437.675
COMPASS 1 25 May 10:14:15 10:18:27 66° 287° (WNW) 10:22:37 437.405
AUBIESAT-1 25 May 10:16:34 10:19:34 30° 297° (WNW) 10:22:30 437.475
HUMSAT D 25 May 10:18:07 10:19:04 11° 88° (E) 10:20:01 437.325/437.525
AAUSAT CUBESAT 2 25 May 10:19:50 10:24:02 70° 286° (WNW) 10:28:12 437.432
FUNcube-1 25 May 10:20:35 10:24:32 41° 98° (E) 10:28:31 145.935
M-CUBED/EXP-1 PRIME 25 May 10:20:47 10:23:29 23° 299° (WNW) 10:26:06 437.505
ANTELSAT 25 May 10:24:11 10:28:29 59° 73° (ENE) 10:32:44 437.575/2403.000
NANOSAT C BR1 25 May 10:27:48 10:30:03 14° 60° (ENE) 10:32:17 145.865
AO-85 25 May 10:29:36 10:32:48 16° 337° (NNW) 10:35:55 145.980
HO-68 25 May 10:31:29 10:38:24 53° 296° (WNW) 10:45:18 435.675
O/OREOS (USA 219) 25 May 10:37:15 10:41:40 50° 109° (ESE) 10:46:04 437.305
CANX-2 25 May 10:50:19 10:52:59 16° 299° (WNW) 10:55:39 2200.000
GONETS M04 25 May 10:53:46 11:02:03 50° 271° (W) 11:10:16
CUSAT 1 25 May 10:55:30 10:57:42 12° 71° (ENE) 11:00:00 437.405
Cosmos 2499 25 May 10:56:35 11:04:59 72° 266° (W) 11:13:46 435.465 / 435.565
SEEDS 25 May 10:58:53 11:01:54 19° 297° (WNW) 11:04:55 437.485
DUCHIFAT 1 25 May 11:06:08 11:09:49 30° 67° (ENE) 11:13:30 145.980
Oscar 11 25 May 11:08:38 11:12:53 54° 288° (WNW) 11:17:07 145.826/435.025
CUBEBUG 2 25 May 11:09:31 11:13:07 29° 293° (WNW) 11:16:42 437.445
DELFI C3 25 May 11:14:57 11:19:01 87° 282° (WNW) 11:23:03 145.870
ZACube-1 25 May 11:16:58 11:20:59 48° 289° (WNW) 11:25:01 437.345
UNISAT 6 25 May 11:19:47 11:23:52 38° 262° (W) 11:27:55 437.425
CUTE 1.7 + AOD 2 25 May 11:20:00 11:20:35 10° 303° (WNW) 11:21:09 437.475
TIGRISAT 25 May 11:28:33 11:32:30 33° 263° (W) 11:36:26 435.000
BUGSAT 1 25 May 11:36:49 11:40:32 31° 67° (ENE) 11:44:14 437.445
JAS-2 25 May 11:39:18 11:45:18 27° 55° (NE) 11:51:34 435.910
POPSAT HIP 1 25 May 11:40:08 11:44:22 72° 75° (ENE) 11:48:37 437.405
QB50P1 25 May 11:40:50 11:45:04 75° 73° (ENE) 11:49:19 145.935-145.965
QB50P2 25 May 11:42:03 11:46:18 81° 73° (ENE) 11:50:33 145.880/145.840
POLYITAN 1 25 May 11:44:29 11:48:45 82° 72° (ENE) 11:52:59 437.675
UWE-3 25 May 11:45:00 11:47:56 19° 297° (WNW) 11:50:53 435.000/436.395/437.385
SO-50 25 May 11:50:48 11:53:24 15° 251° (WSW) 11:55:58 436.795
HUMSAT D 25 May 11:51:05 11:55:14 79° 285° (WNW) 11:59:24 437.325/437.525
PCSat 25 May 11:51:14 11:56:37 66° 307° (NW) 12:02:03 145.827
AISAT 25 May 11:54:35 11:57:28 17° 91° (E) 12:00:19 437.250
FUNcube-1 25 May 11:57:24 12:00:34 21° 296° (WNW) 12:03:45 145.935
NANOSAT C BR1 25 May 12:01:02 12:05:16 71° 258° (WSW) 12:09:29 145.865
DANDE 25 May 12:02:10 12:05:42 17° 76° (ENE) 12:09:45 436.750
ANTELSAT 25 May 12:02:58 12:05:35 15° 270° (W) 12:08:10 437.575/2403.000
AO-85 25 May 12:14:29 12:15:29 10° 2° (N) 12:16:28 145.980
BEESAT 3 25 May 12:16:32 12:19:30 21° 114° (ESE) 12:22:30 437.485
O/OREOS (USA 219) 25 May 12:17:41 12:21:21 23° 309° (NW) 12:25:00 437.305
UKube-1 25 May 12:18:35 12:21:42 19° 92° (E) 12:24:46 .
ESTCUBE 1 25 May 12:19:38 12:23:57 41° 98° (E) 12:28:15 437.505/2401.250
HO-68 25 May 12:21:21 12:24:35 14° 317° (NW) 12:27:48 435.675
CUSAT 1 25 May 12:31:50 12:37:55 60° 94° (E) 12:45:25 437.405
50 SAT 25 May 12:38:09 12:41:46 48° 100° (E) 12:45:23 437.505
DUCHIFAT 1 25 May 12:41:49 12:45:30 29° 265° (W) 12:49:12 145.980
Oscar 19 25 May 12:43:17 12:47:42 29° 63° (ENE) 12:52:08 437.125/150
Gurwin Techsat 1B 25 May 12:44:27 12:47:21 15° 55° (NE) 12:50:15 435.225
Cosmos 2499 25 May 12:51:55 12:56:40 16° 286° (WNW) 13:01:32 435.465 / 435.565
DELFI C3 25 May 12:52:37 12:53:12 10° 302° (WNW) 12:53:47 145.870
VELOX 1 25 May 12:54:09 12:58:35 62° 102° (ESE) 13:02:57 145.980
CUBEBUG 1 25 May 12:55:02 12:59:26 66° 101° (ESE) 13:03:46 437.445
DX 1 25 May 12:58:57 13:03:17 58° 101° (ESE) 13:07:34 434.975-435.025
BUGSAT 1 25 May 13:12:17 13:15:54 27° 264° (W) 13:19:32 437.445
BEESAT 2 25 May 13:12:36 13:16:23 44° 121° (ESE) 13:20:12 435.950
AO-7 25 May 13:18:51 13:23:31 17° 38° (NE) 13:28:12 29.400- 29.500
POPSAT HIP 1 25 May 13:18:54 13:20:39 12° 272° (W) 13:22:24 437.405
QB50P1 25 May 13:19:46 13:21:22 12° 272° (W) 13:22:58 145.935-145.965
ITAMSAT 1 25 May 13:21:05 13:23:21 13° 53° (NE) 13:25:38 435.822/435.867
QB50P2 25 May 13:21:33 13:22:40 11° 272° (W) 13:23:48 145.880/145.840
JAS-2 25 May 13:22:08 13:29:27 82° 256° (WSW) 13:37:22 435.910
POLYITAN 1 25 May 13:24:12 13:25:07 11° 273° (W) 13:26:03 437.675
AISAT 25 May 13:29:57 13:34:19 56° 289° (WNW) 13:38:37 437.250
SPROUT 25 May 13:35:23 13:39:40 71° 103° (ESE) 13:43:54 437.525
PCSat 25 May 13:37:27 13:41:05 18° 329° (NNW) 13:44:45 145.827
DANDE 25 May 13:41:48 13:47:10 86° 284° (WNW) 13:54:21 436.750
BEESAT 3 25 May 13:53:07 13:56:55 46° 313° (NW) 14:00:47 437.485
UKube-1 25 May 13:53:50 13:58:00 48° 290° (WNW) 14:02:09 .
AO-85 25 May 13:54:38 13:58:02 18° 27° (NNE) 14:01:15 145.980
ESTCUBE 1 25 May 13:56:51 14:00:33 25° 296° (WNW) 14:04:16 437.505/2401.250
TISAT 1 25 May 14:10:20 14:14:24 47° 99° (E) 14:18:25 437.305
Cosmos 2491 25 May 14:11:10 14:17:36 22° 57° (ENE) 14:23:57 435.465 / 435.565
50 SAT 25 May 14:12:56 14:15:10 15° 297° (WNW) 14:17:23 437.505
CUSAT 1 25 May 14:14:53 14:20:38 32° 298° (WNW) 14:27:23 437.405
Gurwin Techsat 1B 25 May 14:21:12 14:26:30 84° 74° (ENE) 14:31:52 435.225
Oscar 19 25 May 14:21:53 14:26:50 44° 262° (W) 14:31:50 437.125/150
VELOX 1 25 May 14:31:42 14:34:36 17° 300° (WNW) 14:37:28 145.980
CUBEBUG 1 25 May 14:32:33 14:35:13 16° 300° (WNW) 14:37:53 437.445
DX 1 25 May 14:36:09 14:39:04 18° 300° (WNW) 14:41:58 434.975-435.025
BEESAT 2 25 May 14:51:00 14:54:23 26° 320° (NW) 14:57:49 435.950
ITAMSAT 1 25 May 14:56:48 15:01:57 74° 72° (ENE) 15:07:09 435.822/435.867
AIST 2 25 May 14:58:31 15:02:21 38° 119° (ESE) 15:06:13 435.215
AO-7 25 May 15:06:32 15:14:31 55° 61° (ENE) 15:22:34 29.400- 29.500
SWISSCUBE 25 May 15:06:53 15:11:25 40° 98° (E) 15:15:56 437.505
JAS-2 25 May 15:10:48 15:15:40 18° 277° (W) 15:20:46 435.910
ITUPSAT 1 25 May 15:11:29 15:16:01 39° 98° (E) 15:20:31 437.325
SPROUT 25 May 15:12:48 15:15:05 14° 300° (WNW) 15:17:22 437.525
DANDE 25 May 15:27:23 15:31:30 19° 308° (NW) 15:36:17 436.750
BEESAT 3 25 May 15:34:13 15:35:35 11° 334° (NNW) 15:36:58 437.485
AO-85 25 May 15:34:39 15:39:30 68° 50° (NE) 15:43:51 145.980
BEESAT 25 May 15:36:49 15:41:37 70° 102° (ESE) 15:46:23 436.000
KKS-1 25 May 15:42:57 15:44:12 11° 87° (E) 15:45:27 437.445
TISAT 1 25 May 15:46:46 15:49:44 19° 298° (WNW) 15:52:42 437.305
Gurwin Techsat 1B 25 May 16:04:14 16:07:09 15° 272° (W) 16:10:04 435.225
Cosmos 2491 25 May 16:07:07 16:15:57 84° 81° (E) 16:24:41 435.465 / 435.565
HORYU 2 25 May 16:09:03 16:12:44 27° 65° (ENE) 16:16:27 437.375
YUBILEINY 25 May 16:12:50 16:20:30 37° 84° (E) 16:28:12 435.215
STARS 25 May 16:25:01 16:27:43 16° 91° (E) 16:30:23 437.465
RS-15 25 May 16:27:00 16:33:21 17° 94° (E) 16:39:51 29.354- 29.394
AIST 2 25 May 16:37:15 16:40:55 30° 318° (NW) 16:44:38 435.215
ITAMSAT 1 25 May 16:38:49 16:42:00 16° 271° (W) 16:45:12 435.822/435.867
NOAA 18 25 May 16:43:02 16:46:06 15° 54° (NE) 16:49:11 137.9125
SWISSCUBE 25 May 16:45:00 16:49:04 28° 296° (WNW) 16:53:06 437.505
ITUPSAT 1 25 May 16:49:38 16:53:43 28° 296° (WNW) 16:57:47 437.325
BRITE-PL 25 May 16:56:52 17:00:24 17° 57° (ENE) 17:03:57 437.365/2234.400
AO-7 25 May 16:59:52 17:07:32 40° 262° (W) 17:15:17 29.400- 29.500
Cosmos 2504 25 May 17:05:20 17:10:08 19° 77° (ENE) 17:15:04 435.465 / 435.565
Cubesat XI-IV 25 May 17:06:22 17:09:50 18° 57° (ENE) 17:13:19 437.490
NOAA 15 25 May 17:10:21 17:14:42 26° 61° (ENE) 17:19:03 137.62
PCSat 25 May 17:10:29 17:12:59 13° 22° (NNE) 17:15:29 145.827
MOZHAYETS 4 25 May 17:12:21 17:16:58 68° 102° (ESE) 17:21:35
BEESAT 25 May 17:15:46 17:18:54 18° 301° (WNW) 17:22:01 436.000
AO-85 25 May 17:16:21 17:19:20 17° 251° (WSW) 17:22:09 145.980
KKS-1 25 May 17:16:56 17:21:25 85° 281° (WNW) 17:25:50 437.445
GOMX 1 25 May 17:35:26 17:39:00 18° 59° (ENE) 17:42:31 467.674
HORYU 2 25 May 17:45:06 17:49:10 36° 262° (W) 17:53:16 437.375
CUTE-I 25 May 17:51:42 17:56:36 39° 66° (ENE) 18:01:31 437.470
STARS 25 May 18:00:09 18:04:28 58° 289° (WNW) 18:08:45 437.465
Cosmos 2491 25 May 18:05:17 18:11:42 24° 282° (WNW) 18:18:06 435.465 / 435.565
YUBILEINY 25 May 18:08:28 18:16:58 56° 286° (WNW) 18:25:32 435.215
NOAA 18 25 May 18:20:30 18:25:58 83° 72° (ENE) 18:31:27 137.9125
CUBESAT XI-V 25 May 18:30:18 18:34:57 52° 99° (E) 18:39:32 437.345
RS-15 25 May 18:32:00 18:43:12 67° 118° (ESE) 18:55:02 29.354- 29.394
BRITE-PL 25 May 18:32:25 18:38:04 87° 76° (ENE) 18:43:49 437.365/2234.400
DOVE 4 25 May 18:36:43 18:41:07 28° 65° (ENE) 18:45:22 437.250
LilacSat-2 25 May 18:40:52 18:44:40 87° 258° (WSW) 18:48:30 437.200
Cubesat XI-IV 25 May 18:43:58 18:49:17 80° 256° (WSW) 18:54:39 437.490
NOAA 15 25 May 18:49:01 18:54:11 51° 260° (W) 18:59:24 137.62
MOZHAYETS 4 25 May 18:50:42 18:53:38 17° 300° (WNW) 18:56:35
PCSat 25 May 18:52:51 18:57:58 39° 46° (NE) 19:03:03 145.827
BEESAT 3 25 May 18:54:38 18:54:54 10° 23° (NNE) 18:55:11 437.485
KKS-1 25 May 18:55:39 18:57:15 12° 304° (NW) 18:58:51 437.445
